Weather History for Imperial, NE

Change the Weather History Date:

Friday, April 18, 2014

  Actual Average Record
Temperature  
Mean Temperature 58 °F 49 °F  
Max Temperature 78 °F 63 °F 92 °F (1948)
Min Temperature 37 °F 35 °F 14 °F (1953)
Degree Days  
Heating Degree Days 7 16  
Month to date heating degree days 324 334  
Cooling Degree Days 0 0  
Month to date cooling degree days 0 0  
Year to date cooling degree days 0 0  
Growing Degree Days 8 (Base 50)    
Moisture  
Dew Point 38 °F    
Average Humidity 54    
Maximum Humidity 86    
Minimum Humidity 22    
Precipitation  
Precipitation 0.00 in 0.08 in 1.08 in (1941)
Sea Level Pressure  
Sea Level Pressure 29.96 in    
Wind  
Wind Speed 18 mph (South)    
Max Wind Speed 28 mph    
Max Gust Speed 36 mph    
Visibility 10 miles    
Events      
T = Trace of Precipitation, MM = Missing Value Source: NWS Daily Summary

Daily Weather History Graph

Daily Weather History Graph

Search for Another Location

Airport:

Trip Planner

Search our weather history database for the weather conditions in past years. The results will help you decide how hot, cold, wet, or windy it might be!

Date:

Astronomy

Apr. 18, 2014 Rise Set
Actual Time 6:03 AM MDT 7:28 PM MDT
Civil Twilight 5:34 AM MDT 7:57 PM MDT
Nautical Twilight 5:00 AM MDT 8:31 PM MDT
Astronomical Twilight 4:24 AM MDT 9:08 PM MDT
Moon 11:16 PM MDT (4/18) 8:26 AM MDT (4/18)
Length of Visible Light 14h 22m
Length of Day
13h 25m
Waning Gibbous, 86% of the Moon is Illuminated
Apr 18
Waning Gibbous
Apr 22
Last Quarter
Apr 29
New
May 6
First Quarter
May 14
Full

Hourly Weather History & Observations

Time (MDT) Temp. Windchill Dew Point Humidity Pressure Visibility Wind Dir Wind Speed Gust Speed Precip Events Conditions
12:53 AM 41.0 °F 33.5 °F 37.0 °F 86% 30.13 in 10.0 mi South 13.8 mph - N/A   Clear
1:53 AM 41.0 °F 34.3 °F 37.0 °F 86% 30.10 in 10.0 mi South 11.5 mph - N/A   Clear
2:53 AM 39.0 °F 32.8 °F 35.1 °F 86% 30.09 in 10.0 mi South 9.2 mph - N/A   Clear
3:53 AM 39.9 °F 32.1 °F 35.1 °F 83% 30.06 in 10.0 mi South 13.8 mph - N/A   Clear
4:53 AM 39.0 °F 33.4 °F 33.1 °F 79% 30.06 in 10.0 mi South 8.1 mph - N/A   Clear
5:53 AM 39.0 °F 32.3 °F 33.1 °F 79% 30.06 in 10.0 mi SSE 10.4 mph - N/A   Clear
6:53 AM 39.9 °F 33.4 °F 34.0 °F 79% 30.06 in 10.0 mi South 10.4 mph - N/A   Clear
7:53 AM 44.1 °F 36.2 °F 36.0 °F 73% 30.06 in 10.0 mi SSW 18.4 mph - N/A   Clear
8:53 AM 50.0 °F - 37.0 °F 61% 30.03 in 10.0 mi SSW 17.3 mph - N/A   Clear
9:53 AM 55.9 °F - 37.9 °F 51% 30.01 in 10.0 mi South 15.0 mph - N/A   Clear
10:53 AM 62.1 °F - 39.0 °F 43% 29.98 in 10.0 mi South 17.3 mph - N/A   Clear
11:53 AM 68.0 °F - 37.9 °F 33% 29.95 in 10.0 mi South 21.9 mph 29.9 mph N/A   Clear
12:53 PM 72.0 °F - 37.9 °F 29% 29.93 in 10.0 mi South 19.6 mph 26.5 mph N/A   Clear
1:53 PM 75.0 °F - 37.9 °F 26% 29.91 in 10.0 mi South 19.6 mph 25.3 mph N/A   Clear
2:53 PM 75.9 °F - 37.0 °F 24% 29.88 in 10.0 mi South 24.2 mph 29.9 mph N/A   Clear
3:53 PM 75.9 °F - 37.9 °F 25% 29.85 in 10.0 mi SSE 26.5 mph 33.4 mph N/A   Clear
4:53 PM 77.0 °F - 36.0 °F 23% 29.82 in 10.0 mi South 25.3 mph 33.4 mph N/A   Clear
5:53 PM 75.9 °F - 37.0 °F 24% 29.82 in 10.0 mi South 25.3 mph 33.4 mph N/A   Clear
6:53 PM 70.0 °F - 41.0 °F 35% 29.84 in 10.0 mi SSE 19.6 mph - N/A   Clear
7:53 PM 64.9 °F - 43.0 °F 45% 29.86 in 10.0 mi North - - N/A   Clear
8:53 PM 62.6 °F - 42.8 °F 48% 29.90 in 10.0 mi SSE 17.3 mph - N/A   Clear
9:53 PM 60.1 °F - 42.1 °F 51% 29.87 in 10.0 mi SSE 19.6 mph 26.5 mph N/A   Clear
10:53 PM 59.0 °F - 42.1 °F 53% 29.84 in 10.0 mi South 21.9 mph - N/A   Clear
11:53 PM 55.9 °F - 42.1 °F 60% 29.83 in 10.0 mi SSE 16.1 mph 26.5 mph N/A   Clear